Location: Bli��� Lhota
(48.7570°N, 14.0120°E)
Time: 05:44:53
(UTC+00:00)

Cosmos 2142 Rocket - Pass Details

Date: 18 September 2020
Orbit: 952 x 1005 km, 82.9° (Epoch: 22 October)

Event Time Altitude Azimuth Distance (km) Brightness Sun altitude
Exits shadow 20:21:18 67° 217° (SW) 1,063 4.5 -29.5°
Maximum altitude 20:22:08 79° 280° (W) 1,006 4.5 -29.6°
Drops below altitude 10° 20:28:25 10° 7° (N) 2,730 7.2 -30.3°
Sets 20:30:56 0° 9° (N) 3,673 8.0 -30.6°
